TimeEEST,TemperatureF,Dew PointF,Humidity,Sea Level PressureIn,VisibilityMPH,Wind Direction,Wind SpeedMPH,Gust SpeedMPH,PrecipitationIn,Events,Conditions,WindDirDegrees,DateUTC
12:20 AM,59.0,42.8,55,30.15,-9999.0,North,5.8,-,N/A,,Unknown,350,2012-10-06 21:20:00
12:50 AM,59.0,42.8,55,30.15,-9999.0,North,5.8,-,N/A,,Unknown,350,2012-10-06 21:50:00
1:20 AM,57.2,42.8,59,30.15,-9999.0,NNW,5.8,-,N/A,,Unknown,340,2012-10-06 22:20:00
1:50 AM,57.2,42.8,59,30.15,-9999.0,North,6.9,-,N/A,,Unknown,350,2012-10-06 22:50:00
2:20 AM,57.2,42.8,59,30.15,-9999.0,North,5.8,-,N/A,,Unknown,360,2012-10-06 23:20:00
2:50 AM,55.4,42.8,63,30.15,-9999.0,North,5.8,-,N/A,,Unknown,360,2012-10-06 23:50:00
3:20 AM,57.2,42.8,59,30.12,-9999.0,NNW,5.8,-,N/A,,Unknown,340,2012-10-07 00:20:00
3:50 AM,57.2,42.8,59,30.12,-9999.0,North,4.6,-,N/A,,Unknown,350,2012-10-07 00:50:00
4:20 AM,55.4,42.8,63,30.12,-9999.0,Variable,3.5,-,N/A,,Unknown,0,2012-10-07 01:20:00
4:50 AM,53.6,42.8,67,30.12,-9999.0,North,4.6,-,N/A,,Unknown,350,2012-10-07 01:50:00
5:20 AM,53.6,42.8,67,30.09,-9999.0,Variable,3.5,-,N/A,,Unknown,0,2012-10-07 02:20:00
5:50 AM,51.8,42.8,71,30.09,-9999.0,North,4.6,-,N/A,,Unknown,350,2012-10-07 02:50:00
6:20 AM,53.6,42.8,67,30.09,-9999.0,North,4.6,-,N/A,,Unknown,350,2012-10-07 03:20:00
6:50 AM,51.8,42.8,71,30.09,-9999.0,North,4.6,-,N/A,,Unknown,350,2012-10-07 03:50:00
7:20 AM,53.6,42.8,67,30.09,-9999.0,NNW,4.6,-,N/A,,Unknown,340,2012-10-07 04:20:00
7:50 AM,51.8,42.8,71,30.09,-9999.0,NNW,4.6,-,N/A,,Unknown,340,2012-10-07 04:50:00
8:20 AM,53.6,44.6,72,30.09,-9999.0,NNW,4.6,-,N/A,,Unknown,330,2012-10-07 05:20:00
8:50 AM,59.0,46.4,63,30.09,-9999.0,Variable,2.3,-,N/A,,Unknown,0,2012-10-07 05:50:00
9:20 AM,62.6,46.4,55,30.09,-9999.0,Variable,1.2,-,N/A,,Unknown,0,2012-10-07 06:20:00
9:50 AM,64.4,46.4,52,30.09,-9999.0,Variable,2.3,-,N/A,,Unknown,0,2012-10-07 06:50:00
10:20 AM,66.2,46.4,49,30.09,-9999.0,Variable,3.5,-,N/A,,Unknown,0,2012-10-07 07:20:00
10:50 AM,66.2,46.4,49,30.09,-9999.0,ESE,4.6,-,N/A,,Unknown,120,2012-10-07 07:50:00
11:20 AM,68.0,46.4,46,30.09,-9999.0,ESE,4.6,-,N/A,,Unknown,120,2012-10-07 08:20:00
11:50 AM,69.8,46.4,43,30.06,-9999.0,ESE,4.6,-,N/A,,Unknown,110,2012-10-07 08:50:00
12:20 PM,71.6,46.4,41,30.06,-9999.0,East,4.6,-,N/A,,Unknown,80,2012-10-07 09:20:00
12:50 PM,73.4,44.6,36,30.06,-9999.0,Variable,3.5,-,N/A,,Unknown,0,2012-10-07 09:50:00
1:20 PM,75.2,42.8,31,30.04,-9999.0,East,4.6,-,N/A,,Unknown,100,2012-10-07 10:20:00
1:50 PM,75.2,42.8,31,30.04,-9999.0,SE,6.9,-,N/A,,Unknown,140,2012-10-07 10:50:00
2:20 PM,77.0,42.8,29,30.01,-9999.0,ENE,6.9,-,N/A,,Unknown,70,2012-10-07 11:20:00
2:50 PM,78.8,42.8,28,30.01,-9999.0,SSE,6.9,-,N/A,,Clear,160,2012-10-07 11:50:00
3:50 PM,78.8,39.2,24,29.98,-9999.0,Variable,4.6,-,N/A,,Clear,0,2012-10-07 12:50:00
4:50 PM,78.8,37.4,23,29.95,-9999.0,ESE,5.8,-,N/A,,Clear,110,2012-10-07 13:50:00
5:50 PM,78.8,39.2,24,29.95,-9999.0,Calm,Calm,-,N/A,,Clear,0,2012-10-07 14:50:00
6:50 PM,73.4,41.0,31,29.95,6.2,Calm,Calm,-,N/A,,Partly Cloudy,0,2012-10-07 15:50:00
7:50 PM,69.8,35.6,28,29.95,6.2,West,5.8,-,N/A,,Partly Cloudy,280,2012-10-07 16:50:00
8:50 PM,68.0,33.8,28,29.95,-9999.0,WNW,6.9,-,N/A,,Clear,300,2012-10-07 17:50:00
9:20 PM,68.0,33.8,28,29.95,-9999.0,West,5.8,-,N/A,,Unknown,260,2012-10-07 18:20:00
9:50 PM,66.2,35.6,32,29.95,-9999.0,Variable,2.3,-,N/A,,Unknown,0,2012-10-07 18:50:00
10:20 PM,68.0,37.4,33,29.95,-9999.0,NW,5.8,-,N/A,,Unknown,320,2012-10-07 19:20:00
10:50 PM,66.2,37.4,35,29.95,-9999.0,NW,4.6,-,N/A,,Unknown,320,2012-10-07 19:50:00
11:20 PM,68.0,35.6,30,29.95,-9999.0,NNW,4.6,-,N/A,,Unknown,340,2012-10-07 20:20:00
11:50 PM,66.2,35.6,32,29.95,-9999.0,NNW,5.8,-,N/A,,Unknown,340,2012-10-07 20:50:00